Stündliche Wetter Abadszalok

Heute, 21 Juni, Montag

Zeit Temperatur Niederschläge Wind Luftdruck Luftfeuchtigkeit
00:00 +22°C° 0 mm 1 m/S 749 mmHg 72%
01:00 +22°C° 0 mm 1 m/S 749 mmHg 73%
02:00 +21°C° 0 mm 1 m/S 749 mmHg 75%
03:00 +21°C° 0 mm 1 m/S 749 mmHg 77%
04:00 +20°C° 0 mm 1 m/S 749 mmHg 79%
05:00 +22°C° 0 mm 1 m/S 749 mmHg 75%
06:00 +23°C° 0 mm 1 m/S 749 mmHg 70%
07:00 +25°C° 0 mm 1 m/S 750 mmHg 65%
08:00 +27°C° 0 mm 1 m/S 750 mmHg 60%
09:00 +28°C° 0 mm 1 m/S 750 mmHg 55%
10:00 +30°C° 0 mm 1 m/S 750 mmHg 50%
11:00 +31°C° 0 mm 1 m/S 749 mmHg 47%
12:00 +32°C° 0 mm 2 m/S 749 mmHg 44%
13:00 +32°C° 0 mm 2 m/S 749 mmHg 41%
14:00 +34°C° 0 mm 2 m/S 749 mmHg 41%
15:00 +34°C° 0 mm 2 m/S 748 mmHg 40%
16:00 +34°C° 0 mm 2 m/S 748 mmHg 39%
17:00 +31°C° 0 mm 2 m/S 748 mmHg 46%
18:00 +30°C° 0 mm 2 m/S 748 mmHg 52%
19:00 +28°C° 0 mm 2 m/S 748 mmHg 58%
20:00 +27°C° 0.2 mm 2 m/S 748 mmHg 62%
21:00 +26°C° 0.2 mm 2 m/S 748 mmHg 66%
22:00 +24°C° 0.2 mm 3 m/S 748 mmHg 70%
23:00 +24°C° 0.3 mm 2 m/S 748 mmHg 76%

Morgen, 22 Juni, Dienstag

Zeit Temperatur Niederschläge Wind Luftdruck Luftfeuchtigkeit
00:00 +23°C° 0.3 mm 2 m/S 748 mmHg 81%
01:00 +21°C° 0.3 mm 2 m/S 749 mmHg 87%
02:00 +21°C° 0.1 mm 2 m/S 749 mmHg 87%
03:00 +21°C° 0.1 mm 2 m/S 749 mmHg 88%
04:00 +20°C° 0.1 mm 2 m/S 749 mmHg 89%
05:00 +22°C° 0 mm 3 m/S 749 mmHg 85%
06:00 +24°C° 0 mm 3 m/S 749 mmHg 82%
07:00 +25°C° 0 mm 3 m/S 749 mmHg 78%
08:00 +27°C° 0 mm 3 m/S 750 mmHg 71%
09:00 +28°C° 0 mm 3 m/S 750 mmHg 64%
10:00 +30°C° 0 mm 3 m/S 750 mmHg 57%
11:00 +31°C° 0 mm 3 m/S 749 mmHg 53%
12:00 +33°C° 0 mm 3 m/S 749 mmHg 49%
13:00 +34°C° 0 mm 3 m/S 749 mmHg 45%
14:00 +34°C° 0 mm 2 m/S 749 mmHg 44%
15:00 +35°C° 0 mm 2 m/S 749 mmHg 44%
16:00 +35°C° 0 mm 2 m/S 749 mmHg 43%
17:00 +32°C° 0 mm 2 m/S 749 mmHg 49%
18:00 +31°C° 0 mm 2 m/S 749 mmHg 54%
19:00 +30°C° 0 mm 2 m/S 749 mmHg 60%
20:00 +28°C° 0 mm 1 m/S 749 mmHg 63%
21:00 +27°C° 0 mm 1 m/S 749 mmHg 65%
22:00 +26°C° 0 mm 1 m/S 750 mmHg 68%
23:00 +25°C° 0 mm 1 m/S 750 mmHg 71%

übermorgen, 23 Juni, Mittwoch

Zeit Temperatur Niederschläge Wind Luftdruck Luftfeuchtigkeit
00:00 +25°C° 0 mm 1 m/S 750 mmHg 74%
01:00 +24°C° 0 mm 2 m/S 750 mmHg 76%
02:00 +24°C° 0 mm 2 m/S 751 mmHg 79%
03:00 +23°C° 0 mm 2 m/S 751 mmHg 81%
04:00 +23°C° 0 mm 2 m/S 751 mmHg 83%
05:00 +24°C° 0 mm 2 m/S 751 mmHg 78%
06:00 +26°C° 0 mm 2 m/S 751 mmHg 72%
07:00 +28°C° 0 mm 2 m/S 752 mmHg 67%
08:00 +29°C° 0 mm 2 m/S 752 mmHg 62%
09:00 +31°C° 0 mm 2 m/S 752 mmHg 56%
10:00 +32°C° 0 mm 2 m/S 752 mmHg 51%
11:00 +34°C° 0 mm 2 m/S 752 mmHg 46%
12:00 +35°C° 0 mm 2 m/S 752 mmHg 40%
13:00 +36°C° 0 mm 2 m/S 752 mmHg 35%
14:00 +36°C° 0 mm 2 m/S 752 mmHg 34%
15:00 +36°C° 0 mm 2 m/S 752 mmHg 34%
16:00 +36°C° 0 mm 3 m/S 752 mmHg 34%
17:00 +34°C° 0 mm 2 m/S 752 mmHg 41%
18:00 +31°C° 0 mm 2 m/S 752 mmHg 49%
19:00 +30°C° 0 mm 2 m/S 752 mmHg 56%
20:00 +28°C° 0 mm 2 m/S 753 mmHg 60%
21:00 +27°C° 0 mm 2 m/S 753 mmHg 64%
22:00 +26°C° 0 mm 2 m/S 753 mmHg 68%
23:00 +26°C° 0 mm 2 m/S 753 mmHg 71%

24 Juni, Donnerstag

Zeit Temperatur Niederschläge Wind Luftdruck Luftfeuchtigkeit
00:00 +26°C° 0 mm 2 m/S 753 mmHg 73%
01:00 +25°C° 0 mm 2 m/S 753 mmHg 75%
02:00 +25°C° 0 mm 2 m/S 753 mmHg 77%
03:00 +24°C° 0 mm 2 m/S 753 mmHg 79%
04:00 +24°C° 0 mm 2 m/S 753 mmHg 81%
05:00 +25°C° 0 mm 2 m/S 754 mmHg 75%
06:00 +27°C° 0 mm 2 m/S 754 mmHg 70%
07:00 +28°C° 0 mm 2 m/S 754 mmHg 65%
08:00 +30°C° 0 mm 2 m/S 754 mmHg 59%
09:00 +32°C° 0 mm 1 m/S 754 mmHg 54%
10:00 +33°C° 0 mm 1 m/S 754 mmHg 49%
11:00 +35°C° 0 mm 1 m/S 754 mmHg 44%
12:00 +36°C° 0 mm 1 m/S 754 mmHg 40%
13:00 +37°C° 0 mm 1 m/S 753 mmHg 36%
14:00 +37°C° 0 mm 1 m/S 753 mmHg 35%
15:00 +37°C° 0 mm 1 m/S 753 mmHg 35%
16:00 +38°C° 0 mm 2 m/S 753 mmHg 34%
17:00 +37°C° 0 mm 2 m/S 753 mmHg 40%
18:00 +35°C° 0 mm 2 m/S 752 mmHg 45%
19:00 +32°C° 0 mm 2 m/S 752 mmHg 50%
20:00 +31°C° 0.1 mm 2 m/S 752 mmHg 54%
21:00 +29°C° 0.1 mm 2 m/S 752 mmHg 57%
22:00 +28°C° 0.1 mm 3 m/S 752 mmHg 60%
23:00 +27°C° 0.4 mm 2 m/S 752 mmHg 65%

25 Juni, Freitag

Zeit Temperatur Niederschläge Wind Luftdruck Luftfeuchtigkeit
00:00 +26°C° 0.4 mm 2 m/S 752 mmHg 71%
01:00 +25°C° 0.4 mm 2 m/S 752 mmHg 76%
02:00 +24°C° 0.2 mm 2 m/S 751 mmHg 76%
03:00 +24°C° 0.2 mm 2 m/S 751 mmHg 76%
04:00 +23°C° 0.2 mm 1 m/S 751 mmHg 76%
05:00 +25°C° 0.1 mm 2 m/S 751 mmHg 71%
06:00 +26°C° 0.1 mm 2 m/S 752 mmHg 67%
07:00 +28°C° 0.1 mm 2 m/S 752 mmHg 62%
08:00 +30°C° 0 mm 2 m/S 752 mmHg 56%
09:00 +31°C° 0 mm 3 m/S 752 mmHg 49%
10:00 +34°C° 0 mm 3 m/S 752 mmHg 43%
11:00 +35°C° 0 mm 4 m/S 752 mmHg 42%
12:00 +35°C° 0 mm 5 m/S 752 mmHg 42%
13:00 +36°C° 0 mm 5 m/S 751 mmHg 41%
14:00 +35°C° 0 mm 6 m/S 751 mmHg 42%
15:00 +34°C° 0 mm 6 m/S 751 mmHg 43%
16:00 +33°C° 0 mm 7 m/S 751 mmHg 43%
17:00 +32°C° 0 mm 6 m/S 751 mmHg 49%
18:00 +29°C° 0 mm 5 m/S 751 mmHg 55%
19:00 +27°C° 0 mm 4 m/S 752 mmHg 61%
20:00 +26°C° 0 mm 3 m/S 752 mmHg 62%
21:00 +24°C° 0 mm 3 m/S 752 mmHg 64%
22:00 +23°C° 0 mm 2 m/S 752 mmHg 66%
23:00 +23°C° 0 mm 2 m/S 752 mmHg 67%

26 Juni, Samstag

Zeit Temperatur Niederschläge Wind Luftdruck Luftfeuchtigkeit
00:00 +21°C° 0 mm 2 m/S 752 mmHg 67%
01:00 +21°C° 0 mm 2 m/S 752 mmHg 68%
02:00 +20°C° 0 mm 2 m/S 752 mmHg 69%
03:00 +20°C° 0 mm 2 m/S 752 mmHg 71%
04:00 +19°C° 0 mm 2 m/S 752 mmHg 72%
05:00 +21°C° 0 mm 2 m/S 752 mmHg 68%
06:00 +23°C° 0 mm 2 m/S 752 mmHg 65%
07:00 +25°C° 0 mm 2 m/S 752 mmHg 61%
08:00 +26°C° 0.1 mm 2 m/S 752 mmHg 57%
09:00 +27°C° 0.1 mm 2 m/S 752 mmHg 53%
10:00 +28°C° 0.1 mm 2 m/S 752 mmHg 48%
11:00 +30°C° 0 mm 2 m/S 752 mmHg 45%
12:00 +31°C° 0 mm 2 m/S 751 mmHg 42%
13:00 +32°C° 0 mm 2 m/S 751 mmHg 39%
14:00 +31°C° 0 mm 3 m/S 751 mmHg 41%
15:00 +31°C° 0 mm 3 m/S 750 mmHg 43%
16:00 +32°C° 0 mm 4 m/S 750 mmHg 44%
17:00 +28°C° 0.7 mm 5 m/S 750 mmHg 56%
18:00 +25°C° 0.7 mm 5 m/S 750 mmHg 67%
19:00 +22°C° 0.7 mm 5 m/S 751 mmHg 78%
20:00 +20°C° 0.9 mm 4 m/S 751 mmHg 84%
21:00 +19°C° 0.9 mm 3 m/S 752 mmHg 89%
22:00 +18°C° 0.9 mm 1 m/S 752 mmHg 95%
23:00 +18°C° 0 mm 1 m/S 753 mmHg 94%
Mehr zeigen

Wir brauchen deine Erlaubnis

Meteoprog und unser Service Anbieter werden persönliche Daten aufbewahren, so wie Cookies, Geräte Bezeichnung oder ähnliche Technologien von deinem Gerät und Prozess, so wie Persönliche Daten Inhalte und Werbungen, genauso wie social Media und den Verkehr zu analysieren.

  • Aufbewahrung und/oder Zugang zu deiner Geräte Informationen.

    Cookies, Geräte Bezeichnung oder andere Informationen, können aufbewahrt oder Zugang zu deinem Gerät erhalten, für den Grund, der oben angegeben wird.

  • Personalisierte Werbung und Inhalte, Messungen, Einblick in das Publikum und Produkt Entwicklung.

    Werbungen und Inhalte können personalisiert werden, basierend auf ein Profil. Mehr Daten können besser personalisierte Werbungen und Inhalte hinzufügen. Werbung und Inhalte können gezeigt und gemessen werden. Einblicke über das Publikum, welche die Werbung gesehen haben und den Inhalt, können abgeleitet werden. So wie Daten können genutzt werden, um es zu verbessern oder die Benutzer Erfahrung zu verbessern das System und die Software.

Wenn du “Ich stimme zu” klickst, erlaubst du uns, die Cookies zu benutzen die Geräte Bezeichnung, den Web oder ähnliche Technologien zu benutzen. Deine Settings, können in deinem Gerät bei deinem Browser geändert werden.

Für den bestimmten Zweck, berechtigten Interessen beruhen darauf, mehr als auf den Inhalt. Du kannst mehr darüber in unseren Privaten und Cookie Politik lesen.